Presure
136 144 136 131 131 129 130 136 134 132 134 135 142 142 139 134 138 149 95 151 139 145 128 127 138 132 131 137 131 141 132 131 129 133 142 144 140 136 147 145 147 151 155
128 128 138 135 127 133 137 131 139 105 140 137 138 97 104 139 122 118 130 126 125 126 135 142 135 160 160 154 155 141 88 143 142 148 156 163 150 145 161 161 154 187 175
155 133 134 133 135 128 139 143 139 139 135 137 133 139 148 143 142 148 136 132 141 143 131 139 90 97 90 86 104 102 107 159 102 153 149 151 145 149 116 184 172 169 173
140 142 125 127 135 140 155 128 143 148 124 139 140 145 126 126 142 125 149 126 131 118 143 140 134 103 123 132 145 139 128 145 145 144 150 162 125 179 150 163 173 117 164
146 140 164 123 133 123 149 140 108 95 94 139 137 149 142 147 139 101 149 149 125 142 150 137 141 126 143 138 141 124 155 163 158 164 165 142 159 187 163 144 145 164 137
139 119 133 134 177 97 136 97 142 129 94 103 152 146 109 123 101 151 138 148 137 147 142 151 145 155 144 153 120 151 121 133 166 180 151 146 141 171 136 152 188 179 148
154 129 137 141 166 151 159 116 155 105 149 138 133 156 138 132 143 141 145 132 148 139 147 140 139 133 100 83 105 127 148 85 125 138 148 165 163 159 166 177 190 185 210
134 109 99 91 116 122 155 97 139 130 139 139 150 131 132 147 147 143 123 102 139 121 132 142 97 88 122 114 140 90 83 84 89 89 151 164 130 134 177 181 203 195 190
140 106 91 89 154 169 145 143 134 107 129 102 142 104 107 131 117 145 135 106 99 96 95 133 85 89 86 91 123 93 113 143 172 150 119 92 97 181 195 197 193 196 183
143 145 92 151 97 96 104 99 153 102 108 132 165 102 116 97 148 94 132 141 88 94 95 114 122 127 97 139 97 101 106 85 89 94 132 178 171 117 188 199 186 194 197
169 142 95 91 93 109 105 94 135 89 143 180 145 95 90 92 89 88 88 91 92 89 87 82 94 89 93 91 102 85 93 89 91 91 120 157 183 181 184 176 185 183 192
184 129 95 118 97 94 96 96 87 108 91 89 96 93 93 90 159 99 90 87 91 157 91 87 86 94 88 95 133 95 89 104 131 94 93 103 106 118 189 181 182 195 216
238 224 219 233 94 99 92 90 102 98 95 115 112 95 88 89 103 91 93 90 89 89 86 86 151 101 95 98 129 177 120 184 90 89 112 103 104 106 185 169 188 184 220
111 202 201 105 95 95 102 89 94 102 98 99 113 93 96 88 87 94 87 86 85 84 130 85 137 100 126 172 179 102 99 191 92 99 115 121 99 104 105 168 183 189 215
93 195 195 138 98 103 103 103 104 84 92 88 82 92 96 87 130 96 85 108 154 126 183 109 147 191 115 104 104 123 162 110 90 113 112 159 96 193 152 110 106 186 205
191 193 193 111 173 105 100 104 103 96 90 88 86 91 93 91 126 103 105 199 205 88 100 201 207 183 101 106 120 111 108 107 109 106 107 153 97 96 198 188 110 184 206
180 187 183 191 90 106 100 88 155 95 107 91 86 93 90 91 105 103 211 215 209 140 117 153 219 97 102 118 110 110 109 113 104 109 109 102 195 133 185 206 180 203 203
96 197 107 192 101 97 122 129 187 94 96 106 94 101 89 96 107 208 119 140 141 132 132 122 124 103 107 118 95 102 109 110 109 105 102 199 199 201 197 194 191 207 201
210 96 193 222 102 157 103 97 149 103 105 81 87 101 79 195 198 85 117 116 120 127 141 106 97 115 119 103 100 95 156 110 110 106 158 160 203 206 187 189 215 202 197
194 169 224 227 221 199 225 221 192 176 211 89 177 97 108 161 188 188 177 206 96 95 91 116 101 179 160 169 168 101 161 135 106 193 213 213 205 194 192 212 208 197 200
221 211 241 125 163 196 223 214 216 111 111 95 127 133 208 193 191 98 102 92 99 89 90 138 113 113 85 196 193 96 174 216 97 215 209 195 201 216 212 203 203 199 192
220 218 230 232 224 92 189 213 210 94 221 194 84 240 227 96 92 124 98 99 91 100 117 186 110 109 211 199 196 192 220 214 220 214 220 218 211 204 204 202 197 192 194
205 197 224 233 235 235 235 220 182 194 155 190 91 151 251 161 91 100 153 194 185 133 184 145 185 140 199 189 185 190 185 223 208 215 209 208 207 205 201 201 194 190 189
197 136 201 244 230 228 224 232 246 184 210 214 226 241 231 245 236 225 222 160 203 189 160 173 178 185 190 190 185 188 185 222 207 213 178 209 212 207 205 200 195 197 192
212 220 225 236 236 229 235 234 236 211 201 208 211 226 231 241 237 233 229 217 201 215 185 185 184 179 182 188 188 170 185 179 172 217 197 204 206 204 202 202 200 203 200
221 215 220 220 230 237 229 235 233 237 243 217 204 201 236 77 193 121 230 206 191 165 221 194 197 185 180 190 185 184 172 176 175 174 208 208 207 205 206 206 207 202 202
Wind_Speed
47 49 44 41 40 39 39 39 37 35 35 33 32 30 31 31 31 31 16 31 31 33 30 30 35 34 35 38 37 42 40 41 39 44 54 56 54 50 60 58 60 63 63
46 43 47 46 41 42 43 39 41 21 39 37 35 16 21 32 26 24 32 28 29 32 35 32 36 45 47 45 46 40 15 49 52 56 60 65 59 52 67 68 64 72 72
52 51 49 46 46 43 48 48 43 43 37 38 36 36 37 35 35 36 35 35 38 38 36 36 13 18 13 11 22 23 26 57 22 56 58 60 58 63 34 68 72 71 74
52 56 44 42 50 50 56 41 50 50 31 40 40 41 32 32 38 33 39 32 38 27 42 41 38 22 30 35 44 43 33 51 54 48 56 65 38 59 52 69 69 39 62
52 54 57 40 51 41 48 51 23 19 19 44 41 47 43 44 41 16 42 42 30 43 46 43 42 31 43 42 43 31 53 55 56 62 62 45 65 67 62 50 50 65 49
59 40 50 52 57 25 51 23 44 39 22 18 54 49 21 30 18 47 41 45 43 46 44 49 48 53 48 52 28 53 32 43 61 60 57 56 48 70 46 62 74 70 56
62 47 53 57 53 54 63 30 57 31 60 45 41 59 46 39 46 45 47 37 48 40 47 41 42 38 14 14 21 37 49 17 37 48 55 67 63 63 69 70 77 67 67
53 38 30 28 38 41 64 25 49 41 49 48 58 41 39 53 52 47 31 16 43 31 35 46 15 14 35 28 46 19 16 19 23 23 59 69 44 50 73 74 75 69 63
69 36 32 30 72 65 56 59 46 23 38 23 53 19 21 38 30 49 42 22 15 15 15 39 14 16 16 20 31 25 30 52 71 61 42 32 35 75 80 79 73 68 61
70 76 34 75 29 29 28 27 68 27 29 46 71 26 30 20 55 17 40 46 15 16 18 27 28 36 22 48 26 29 30 24 31 34 52 78 72 41 77 74 70 69 67
80 68 38 36 35 37 31 30 55 28 58 79 54 26 22 21 20 18 16 16 17 16 18 17 24 23 26 26 32 25 31 31 35 36 48 67 79 75 75 65 68 64 64
81 66 40 52 37 36 34 33 30 34 30 26 27 25 24 23 57 26 19 18 20 61 23 23 22 28 26 31 42 33 31 38 55 38 40 43 45 50 76 68 68 71 65
68 66 67 74 39 39 37 33 37 33 30 44 32 27 25 22 34 20 23 22 22 24 24 26 63 36 35 35 44 79 42 83 40 38 48 45 47 49 76 64 70 66 57
42 62 63 44 42 40 43 35 36 35 34 30 35 30 34 25 23 29 24 25 27 27 44 29 57 41 50 78 81 41 37 86 43 48 48 55 49 50 53 65 69 67 56
40 62 60 51 43 48 45 43 41 32 31 31 27 33 33 27 45 35 25 41 61 44 81 38 65 89 43 42 43 45 68 43 48 48 50 67 50 76 63 55 56 67 56
62 61 61 47 59 42 45 46 44 39 37 36 34 36 37 35 48 42 41 81 86 36 42 87 87 76 44 45 46 45 47 48 48 50 52 65 54 54 71 70 58 67 57
67 64 66 64 42 46 46 39 53 38 43 40 38 42 37 39 44 43 72 76 77 53 47 60 79 46 47 50 47 48 51 52 54 53 56 57 72 64 70 66 67 62 56
39 67 40 63 48 50 51 53 59 43 43 48 44 50 39 47 50 68 48 53 54 52 51 50 52 52 53 54 47 52 55 56 57 59 60 70 72 71 69 67 67 59 58
67 42 67 66 53 58 54 49 56 49 49 34 42 53 28 59 63 41 49 50 51 52 55 47 52 56 59 54 54 53 60 60 61 64 67 67 70 69 67 69 60 60 61
67 60 67 67 65 59 61 63 62 59 60 45 61 52 55 58 64 64 58 62 45 51 47 53 57 64 63 63 65 59 64 64 65 66 67 67 65 66 68 62 62 63 63
65 65 63 53 57 59 60 60 63 46 53 53 65 63 69 64 64 50 49 49 51 48 52 60 60 61 47 64 65 62 63 60 66 62 63 65 66 62 61 64 62 63 66
69 65 62 64 68 54 60 61 61 49 64 64 41 67 70 53 50 55 51 52 51 56 59 62 62 63 62 63 62 60 58 60 61 61 61 60 60 63 64 65 65 67 69
71 68 64 63 64 66 64 62 59 63 58 60 52 60 65 61 52 54 62 68 64 49 63 66 63 63 64 63 62 62 61 57 60 60 62 62 63 63 66 69 70 70 70
75 60 66 60 64 67 64 62 59 61 60 62 62 63 66 67 72 74 75 66 71 66 58 66 62 63 65 65 63 63 62 58 61 63 66 64 65 68 68 70 73 75 75
74 71 70 65 61 65 64 60 60 61 60 61 62 64 64 69 69 72 73 76 69 74 67 65 65 63 63 66 67 64 64 61 61 62 68 69 70 72 73 76 79 82 82
75 73 71 69 65 64 66 61 62 59 59 60 64 66 66 33 68 68 72 68 71 68 72 69 68 63 63 67 69 67 64 66 64 64 68 72 73 76 76 79 83 84 86
Wind_Direction
235 244 235 239 238 238 239 241 241 239 243 244 254 255 255 256 260 266 254 274 266 269 268 271 272 273 274 275 280 277 282 284 288 285 278 278 281 288 280 282 284 283 284
244 245 236 239 248 243 241 243 245 240 245 244 245 253 244 253 250 254 264 268 268 270 269 275 271 279 279 278 278 276 300 277 278 279 280 279 280 285 281 282 285 285 284
242 241 243 243 243 249 246 247 245 247 246 249 248 248 256 250 252 262 259 264 264 265 268 273 269 273 272 282 277 282 282 276 288 283 283 281 287 285 287 282 283 285 285
243 235 251 251 250 248 252 248 250 249 243 248 250 253 255 255 252 262 262 267 267 266 266 265 272 272 276 282 277 279 285 282 282 285 285 286 289 288 286 285 287 288 287
247 241 253 257 255 251 252 249 232 215 224 252 252 255 252 253 253 242 258 259 272 265 267 270 271 278 272 277 277 288 282 284 284 284 284 286 287 292 287 285 285 291 282
251 239 243 248 259 211 252 215 250 258 218 240 255 250 245 248 239 257 258 258 264 262 268 269 269 275 276 278 283 278 289 284 285 288 286 289 288 286 287 291 299 292 286
257 249 251 246 261 259 247 243 252 232 253 261 262 254 258 262 255 257 259 267 261 266 266 270 272 273 272 291 286 289 288 304 295 293 289 288 289 291 287 297 301 303 306
252 230 212 213 234 240 248 214 248 260 260 261 256 256 256 256 256 259 257 244 267 261 276 273 272 273 283 286 287 301 294 297 312 314 292 290 290 295 295 296 303 304 299
251 228 219 218 249 257 251 251 253 224 262 223 262 228 237 266 249 259 261 252 248 258 265 276 276 284 289 293 287 297 292 287 288 290 296 310 308 295 299 301 300 304 297
251 249 224 251 212 217 208 214 252 222 233 262 256 233 247 228 262 237 265 269 254 274 280 282 281 283 296 282 298 295 294 307 307 307 294 291 292 293 298 299 301 303 303
258 253 224 221 217 226 218 222 247 222 248 259 256 227 232 233 241 246 252 260 269 272 275 267 291 297 299 293 293 304 298 302 304 306 297 293 293 294 295 296 300 297 300
248 242 225 236 221 222 221 225 229 237 228 234 232 236 240 247 262 253 258 268 276 271 282 285 287 282 292 295 285 293 300 297 293 306 307 303 303 302 292 294 297 300 300
262 257 256 260 230 229 231 233 230 231 231 253 242 242 250 255 258 264 266 272 277 280 279 283 275 281 294 294 288 281 289 285 305 307 295 300 300 300 290 295 297 297 296
239 257 257 239 236 236 235 240 234 231 233 237 248 247 250 263 270 263 272 278 280 280 275 285 278 285 280 276 280 289 294 283 302 303 295 293 301 298 297 293 295 295 292
236 251 254 242 239 239 240 242 241 253 252 251 253 251 259 264 262 269 275 273 269 272 266 274 274 274 277 287 288 285 282 289 305 293 293 290 301 289 291 296 295 293 288
253 255 255 246 251 247 245 245 245 242 246 253 259 257 259 260 269 271 273 262 266 282 279 271 273 273 287 285 282 283 285 285 288 288 289 290 298 300 290 290 292 291 284
247 251 249 254 250 246 244 252 253 245 246 251 261 261 263 266 269 269 265 266 267 270 271 275 274 288 287 278 283 282 284 283 286 288 288 292 286 291 288 286 288 287 279
241 257 265 259 238 246 252 251 252 255 254 254 258 263 266 269 267 266 271 269 269 268 270 268 271 282 281 277 290 287 283 284 284 286 290 283 284 285 284 284 286 281 276
261 239 258 260 242 253 250 251 251 252 247 255 262 260 275 258 263 275 268 268 269 269 274 278 287 276 276 284 285 292 284 284 283 286 285 285 281 282 284 286 279 279 274
258 258 264 263 260 259 260 261 258 257 254 257 259 255 261 258 257 261 266 268 275 275 285 271 283 274 278 279 280 287 283 284 286 280 278 279 279 282 283 279 277 278 276
263 262 264 252 254 258 258 257 259 257 250 254 257 260 261 257 258 264 268 272 271 280 282 276 276 279 294 278 280 291 282 280 295 279 280 280 281 281 278 279 278 278 279
265 265 265 263 264 248 257 256 256 253 259 258 263 258 259 260 267 266 270 270 275 276 274 271 278 280 279 279 282 283 281 281 280 280 281 280 280 280 279 279 279 281 280
263 257 265 264 264 264 261 257 254 255 257 258 257 258 257 263 268 266 266 263 261 272 266 275 274 282 279 279 281 284 285 281 281 281 281 282 281 279 280 280 282 283 284
261 250 261 268 262 264 262 262 264 253 257 259 261 259 259 256 259 261 262 268 265 264 271 267 271 276 279 281 282 283 285 282 285 284 286 283 280 279 279 281 282 282 282
257 261 265 268 267 262 263 261 263 255 254 257 261 261 259 259 255 259 261 264 266 266 265 268 270 273 278 280 282 282 286 286 286 283 289 288 287 287 288 288 288 289 287
260 258 260 261 264 267 262 262 261 263 264 258 258 260 258 284 261 268 260 264 267 272 267 269 271 273 275 278 281 283 285 288 291 293 287 289 290 290 289 288 288 288 288